CZ-6A DEB, 61812

Orbit data source: Space-Track

CZ-6A DEB, 61812 is space debris in LEO originally from a launch on Tue, 06 Aug 2024 UTC launched from the Taiyaun Space Center, China (TSC). Debris objects in space refer to the collection of defunct objects orbiting the Earth. Examples of debris include non-operational satellites, rocket bodies, and fragments generated from explosions, collisions, or faulty payload assembly.

Loading next visibility...
Identifier
61812, 2024-140ACC
Orbit
LEO
Country
Flag of CNCN / PRC
Related business
Manufacturer
SAST
Mission
Spacecraft
Bus & Motor
Unknown
Mass
Unknown
Launch date (UTC)
2024-08-06 (2 years ago)
Launch vehicle
Unknown
Launch site
Taiyaun Space Center, China (TSC)
Object type
Payload
Rocket body
Debris
Shape & HBR
Unknown shape, 0.1 m
Radar Cross Section
Small (<0.1 m²)

Expand to show TLE details & history
Last TLE update: 21 hours ago

TLE from 21 hours ago
0 CZ-6A DEB
1 61812U 24140ACC 26118.24838442  .00003222  00000-0  11996-2 0  9999
2 61812  89.3824 308.1341 0088605  35.4940 325.2106 14.29705186 85821
Epoch: 2026-04-28T05:57Z
TLE epoch observation values (Epoch: 2026-04-28T05:57:40.413Z)
Latitude
-0.00007°
Longitude
2.48929°
Altitude
743.778 km
Speed
7.51 km/s
True Right ascension
20h 32m 32s
True Declination
0° 00' 00"
Sunlit
Object was in daylight at epoch
Visualization orbit readout
Latitude
Unknown
Longitude
Unknown
Altitude
Unknown
Speed
Unknown
Apparent Right ascension
Unknown
Apparent Declination
Unknown
Sunlit
N/A
Visualization observer readout
Local Sidereal Time
10:07:17
Azimuth
Unknown
Elevation
Unknown
Doppler factor
Unknown
Orbital elements
Apogee altitude
853.162 km
Perigee altitude
726.141 km
Semi-major axis
7,167.789 km
Eccentricity
0.00886
Inclination
89.3824°
RAAN
308.1341°
Arg. of periapsis
35.494°
True anomaly
324.62598°
Mean anomaly
325.2106°
Eccentric anomaly
324.91882°
Mean motion
3.57656 °/min
Orbital period
100.66 mins
BSTAR
0.0011996
Loading maneuver chart data...
Computing Atmospheric mass density...
Loading historical data...
Loading historical data...
Loading historical data...
Loading historical data...
Loading historical data...
Loading historical data...
Loading historical data...

Documentation

Showing up to 5 results
|